Location: Brodeslavy
(49.9527°N, 13.5567°E)
Time: 05:38:01
(UTC+00:00)

Cosmos 1844 - Pass Details

Date: 17 June 2025
Orbit: 822 x 866 km, 70.9° (Epoch: 12 July)

Event Time Altitude Azimuth Distance (km) Brightness Sun altitude
Exits shadow 22:16:13 19° 202° (SSW) 1,890 5.1 -15.8°
Maximum altitude 22:20:20 82° 117° (ESE) 837 3.6 -15.9°
Drops below altitude 10° 22:25:55 10° 31° (NNE) 2,433 6.8 -16.1°
Sets 22:28:21 0° 30° (NNE) 3,373 7.7 -16.1°
